This is the latest recevied weather packets stored in our database for station/object KJ5SC. If no packets are shown the sender has not sent any weather packets the latest 10 day(s).
| Time | Temp. | Humidity | Pressure | Rain* | Wind** | Luminosity | Snow |
|---|---|---|---|---|---|---|---|
| 1787771511 | 37.22° C | 43% | 1017.7 hPa | 0 mm | - | 711 W/m² | - |
| 1787771211 | 37.22° C | 42% | 1017.8 hPa | 0 mm | - | 719 W/m² | - |
| 1787770907 | 38.33° C | 42% | 1018.1 hPa | 0 mm | - | 716 W/m² | - |
| 1787770605 | 38.33° C | 42% | 1018.2 hPa | 0 mm | - | 724 W/m² | - |
| 1787770300 | 37.78° C | 42% | 1018.2 hPa | 0 mm | - | 725 W/m² | - |
| 1787769998 | 37.78° C | 42% | 1018.2 hPa | 0 mm | - | 727 W/m² | - |
| 1787769693 | 37.22° C | 47% | 1018.2 hPa | 0 mm | - | 728 W/m² | - |
| 1787769392 | 37.22° C | 44% | 1018.3 hPa | 0 mm | - | 715 W/m² | - |
| 1787769088 | 37.22° C | 43% | 1018.4 hPa | 0 mm | - | 712 W/m² | - |
| 1787768782 | 36.67° C | 42% | 1018.4 hPa | 0 mm | - | 713 W/m² | - |
| 1787768479 | 36.67° C | 46% | 1018.7 hPa | 0 mm | - | 707 W/m² | - |
| 1787768174 | 36.67° C | 47% | 1018.5 hPa | 0 mm | - | 707 W/m² | - |
| 1787767869 | 36.67° C | 48% | 1018.6 hPa | 0 mm | - | 708 W/m² | - |
| 1787767565 | 36.67° C | 48% | 1018.9 hPa | 0 mm | - | 709 W/m² | - |
| 1787767263 | 36.11° C | 48% | 1018.8 hPa | 0 mm | - | 721 W/m² | - |
| 1787766657 | 36.11° C | 48% | 1018.8 hPa | 0 mm | - | 711 W/m² | - |
| 1787766356 | 35.56° C | 50% | 1018.8 hPa | 0 mm | - | 720 W/m² | - |
| 1787766050 | 36.11° C | 49% | 1019.1 hPa | 0 mm | - | 727 W/m² | - |
| 1787765747 | 36.11° C | 49% | 1019.3 hPa | 0 mm | - | 726 W/m² | - |
| 1787765443 | 35.56° C | 48% | 1019.2 hPa | 0 mm | - | 716 W/m² | - |
| 1787765142 | 35.56° C | 52% | 1019.3 hPa | 0 mm | - | 711 W/m² | - |
| 1787764837 | 35° C | 51% | 1019.3 hPa | 0 mm | - | 708 W/m² | - |
| 1787764533 | 35° C | 51% | 1019.4 hPa | 0 mm | - | 704 W/m² | - |
| 1787764232 | 35° C | 52% | 1019.2 hPa | 0 mm | - | 692 W/m² | - |
| 1787763929 | 35° C | 53% | 1019.6 hPa | 0 mm | - | 688 W/m² | - |
* Rain latest hour (hover to see other rain measurements)
** Current wind speed in m/s (hover to see current wind gust speed)